Flag Weather past 2 weeks in Pokhara, Nepal

Now
52 °F

Passing clouds.


Feels Like: 52 °F
Forecast: 46 / 72 °F
Wind: No wind

Location: Kathmandu Airport

Current Time: Nov 28, 2014 at 8:57:18 PM

Latest Report: Nov 28, 2014 at 8:35 PM


Visibility: 4 mi

Pressure: 30.07 "Hg

Humidity: 88%

Dew point: 48 °F

Location of PokharaLocation

Historic Weather in Pokhara — Graph

°F

Pokhara temperature yesterday

Maximum temperature yesterday: 66 °F (at 1:35 PM)
Minimum temperature yesterday: 45 °F (at 6:35 AM)
Average temperature yesterday: 54 °F

Past Weeks' High & Low Weather Summary

 TemperatureHumidityPressure
High70 °F (Nov 14, 12:35 PM)100% (Nov 14, 3:35 AM)30.27 "Hg (Nov 14, 3:35 AM)
Low45 °F (Nov 26, 5:35 AM)43% (Nov 26, 1:35 PM)29.89 "Hg (Nov 26, 2:35 PM)
Average57 °F80%30.09 "Hg
* Reported Nov 13 7:35 PM — Nov 28 7:35 PM, Pokhara, Weather by CustomWeather, © 2014

Note: Actual official high and low records may vary slightly from our data, if they occured in-between our weather recording intervals... More about our weather records

Advertising

Pokhara weather history for previous 24 hours

 ConditionsComfort  
Time TempWeatherWind HumidityBarometerVisibility
7:35 PM
Nov 28
55 °FPassing clouds.No wind82%30.04 "Hg4 mi
6:35 PM57 °FPassing clouds.3 mph72%30.01 "Hg4 mi
5:35 PM59 °FScattered clouds.No wind68%30.01 "Hg4 mi
4:35 PM61 °FPassing clouds.10 mph59%30.01 "Hg4 mi
3:35 PM63 °FPassing clouds.7 mph56%30.01 "Hg4 mi
2:35 PM64 °FPassing clouds.9 mph52%30.01 "Hg4 mi
1:35 PM66 °FPassing clouds.7 mph49%30.01 "Hg4 mi
12:35 PM64 °FScattered clouds.5 mph60%30.04 "Hg3 mi
11:35 AM63 °FScattered clouds.3 mph64%30.09 "Hg3 mi
10:35 AM57 °FFog.3 mph77%30.12 "Hg2 mi
9:35 AM55 °FFog.No wind82%30.12 "Hg2 mi
8:35 AM52 °FFog.No wind88%30.12 "Hg1 mi
7:35 AM48 °FFog.3 mph94%30.07 "Hg1 mi
5:35 AM48 °FFog.No wind100%30.04 "Hg2 mi
4:35 AM48 °FFog.3 mph100%30.01 "Hg2 mi
3:35 AM48 °FFog.5 mph94%30.04 "Hg2 mi
2:35 AM48 °FFog.3 mph94%30.04 "Hg3 mi
1:35 AM50 °FFog.No wind94%30.04 "Hg3 mi
12:35 AM50 °FPassing clouds.No wind94%30.04 "Hg4 mi
11:35 PM
Nov 27
52 °FPassing clouds.No wind88%30.07 "Hg4 mi
9:35 PM54 °FPassing clouds.No wind88%30.07 "Hg4 mi
8:35 PM55 °FPassing clouds.No wind82%30.04 "Hg4 mi
Weather by CustomWeather, © 2014

See weather overviewHow to use our weather pages